Location: Eboldshausen
(51.7766°N, 10.0050°E)
Time: 18:17:18
(UTC+00:00)

ARIANE 6 FM1 Upper Stage - Pass Details

Date: 15 November 2025
Orbit: 522 x 611 km, 62.0° (Epoch: 10 December)

Event Time Altitude Azimuth Distance (km) Brightness Sun altitude
Rises 17:52:10 0° 286° (WNW) 2,662 7.4 -21.9°
Reaches altitude 10° 17:54:51 10° 304° (NW) 1,769 5.9 -22.3°
Maximum altitude 17:57:47 20° 352° (N) 1,274 4.5 -22.7°
Enters shadow 17:58:03 19° 358° (N) 1,279 4.5 -22.8°
